Flag for Kuwait Weather past 2 weeks in Kuwait City, Kuwait

Now
93 °F

Clear.


Feels Like: 89 °F
Forecast: 88 / 106 °F
Wind: 20 mph from North

Location: Kuwait International Airport

Current Time: Jul 1, 2015 at 5:01:42 AM

Latest Report: Jul 1, 2015 at 4:00 AM


Visibility: 10 mi

Pressure: 29.65 "Hg

Humidity: 17%

Dew point: 43 °F

Location of Kuwait CityLocation

Historic Weather in Kuwait City — Graph

°F

Kuwait City temperature yesterday

Maximum temperature yesterday: 111 °F (at 2:00 PM)
Minimum temperature yesterday: 93 °F (at 4:00 AM)
Average temperature yesterday: 102 °F

Past Weeks' High & Low Weather Summary

 TemperatureHumidityPressure
High113 °F (Jun 19, 3:00 PM)23% (Jun 21, 5:00 AM)29.71 "Hg (Jun 21, 5:00 AM)
Low79 °F (Jun 26, 5:00 AM)6% (Jun 30, 2:00 PM)29.45 "Hg (Jun 17, 4:00 PM)
Average100 °F13%29.54 "Hg
* Reported Jun 16 3:00 AM — Jul 1 3:00 AM, Kuwait City, Weather by CustomWeather, © 2015

Note: Actual official high and low records may vary slightly from our data, if they occured in-between our weather recording intervals... More about our weather records

Advertising

Kuwait City weather history for previous 24 hours

 ConditionsComfort  
Time TempWeatherWind HumidityBarometerVisibility
3:00 AM
Wed, Jul 1
93 °FClear.16 mph17%29.65 "Hg10 mi
2:00 AM95 °FClear.25 mph15%29.62 "Hg10 mi
1:00 AM95 °FClear.16 mph14%29.68 "Hg10 mi
12:00 AM97 °FClear.16 mph13%29.68 "Hg10 mi
11:00 PM
Tue, Jun 30
97 °FClear.16 mph13%29.68 "Hg10 mi
10:00 PM100 °FClear.16 mph11%29.68 "Hg10 mi
9:00 PM102 °FClear.15 mph11%29.68 "Hg4 mi
8:00 PM102 °FClear.16 mph11%29.68 "Hg4 mi
7:00 PM104 °FClear.17 mph11%29.65 "Hg3 mi
6:00 PM108 °FSunny.21 mph10%29.65 "Hg4 mi
5:00 PM109 °FSunny.22 mph7%29.62 "Hg4 mi
4:30 PM109 °FSunny.21 mph7%29.62 "Hg4 mi
3:59 PM111 °FSunny.23 mph6%29.62 "Hg4 mi
3:00 PM111 °FSunny.25 mph6%29.65 "Hg4 mi
2:00 PM111 °FSunny.24 mph6%29.65 "Hg4 mi
1:00 PM109 °FSunny.25 mph8%29.65 "Hg4 mi
12:00 PM108 °FSunny.23 mph9%29.68 "Hg4 mi
11:00 AM106 °FSunny.22 mph10%29.71 "Hg10 mi
10:00 AM104 °FSunny.20 mph11%29.71 "Hg10 mi
9:00 AM100 °FSunny.17 mph14%29.71 "Hg10 mi
8:00 AM97 °FSunny.16 mph17%29.68 "Hg10 mi
7:00 AM93 °FSunny.16 mph19%29.68 "Hg10 mi
6:00 AM93 °FSunny.15 mph19%29.65 "Hg10 mi
5:00 AM93 °FSunny.18 mph19%29.62 "Hg10 mi
Weather by CustomWeather, © 2015

See weather overviewHow to use our weather pages